User: anonymous   Login
Location: Unspecified
(0.0000°N, 0.0000°E)
Time: 01:08:36
(UTC+02:00)
Language:

Cosmos 1898 Rocket - Orbit

View from above orbital plane
View from above orbital plane
View from above satellite
View from above satellite

Ground track
Ground track

The orbit data is extracted from the following two-line orbital elements,

1 18586U 87098B   15180.44620888  .00000011  00000-0  12780-4 0  9999
2 18586 074.0051 178.6867 0020151 042.5085 066.2761 14.36633032444149
Epoch (UTC): 29 June 2015 10:42:32
Eccentricity: 0.0020151
inclination: 74.0051°
perigee height: 755 km
apogee height: 784 km
right ascension of ascending node: 178.6867°
argument of perigee: 42.5085°
revolutions per day: 14.36633032
mean anomaly at epoch: 66.2761°
orbit number at epoch: 44414

The dashed part of the orbit path shows where the satellite is in the earth's shadow,  

DLR